Regional Weather Roundup
Issued by NWS

Home | Current Version | Previous Version | Text Only | Print | Product List | Glossary On
Versions: 1 2 3 4 5 6 7 8 9 10 11 12 13 14 15 16 17 18 19 20 21 22 23 24 25 26 27 28 29 30 31 32 33 34 35 36 37 38 39 40 41 42 43 44 45 46 47 48 49 50
000
ASUS43 KLMK 310010
RWRKY
KENTUCKY REGIONAL WEATHER ROUNDUP
NATIONAL WEATHER SERVICE LOUISVILLE KY
800 PM EDT SUN AUG 30 2015

NOTE "FAIR" INDICATES FEW OR NO CLOUDS BELOW 12,000 FEET
WITH NO SIGNIFICANT WEATHER AND/OR OBSTRUCTIONS TO VISIBILITY.

KYZ001>023-026-027-061>063-070>075-310100-
WESTERN AND SOUTH CENTRAL KENTUCKY

CITY           SKY/WX    TMP DP  RH WIND       PRES   REMARKS
PADUCAH        MOCLDY    78  70  76 SE5       30.02R
HENDERSON      MOCLDY    79  70  73 S5        30.02S
OWENSBORO      CLOUDY    80  73  79 SW5       30.04S
HOPKINSVILLE   DRIZZLE   72  70  94 SW5       30.06S
BOWLING GREEN  CLEAR     79  63  57 S5        30.06S
GLASGOW        PTCLDY    76  59  57 S3        30.08S
$$

KYZ024-025-028>034-038-045-046-053-310100-
NORTH CENTRAL KENTUCKY

CITY           SKY/WX    TMP DP  RH WIND       PRES   REMARKS
LOUISVILLE/SDF PTCLDY    81  67  62 S13       30.04S THUNDER
LOUISVILLE/LOU CLOUDY    82  68  62 S8        30.05S
FORT KNOX      MOCLDY    78  70  76 E3        30.04S
$$

KYZ035>037-039>044-047>052-055>060-089>105-310100-
NORTHEAST KENTUCKY

CITY           SKY/WX    TMP DP  RH WIND       PRES   REMARKS
LEXINGTON      CLOUDY    77  67  71 SW3       30.09S
COVINGTON      CLOUDY    76  68  76 CALM      30.06F
FRANKFORT      MOCLDY    73  68  84 CALM      30.07S
$$

KYZ054-064>069-076>088-106>120-310100-
SOUTHEAST KENTUCKY

CITY           SKY/WX    TMP DP  RH WIND       PRES   REMARKS
JACKSON        MOCLDY    76  64  66 CALM      30.11F
LONDON         MOCLDY    77  63  61 CALM      30.10F
SOMERSET       MOCLDY    75  63  64 CALM      30.10S
MIDDLESBORO    MOCLDY    73  69  87 CALM      30.10S
MONTICELLO     CLOUDY    74  69  84 CALM      30.11F
$$




USA.gov is the U.S. government's official web portal to all federal, state and local government web resources and services.